Regional Weather Roundup
Issued by NWS

Home | Current Version | Previous Version | Text Only | Print | Product List | Glossary On
Versions: 1 2 3 4 5 6 7 8 9 10 11 12 13 14 15 16 17 18 19 20 21 22 23 24 25 26 27 28 29 30 31 32 33 34 35 36 37 38 39 40 41 42 43 44 45 46 47 48 49 50
963
ASUS43 KTOP 272159
RWRKS

WEATHER ROUNDUP FOR KANSAS
NATIONAL WEATHER SERVICE GOODLAND KS
500 PM CDT TUE SEP 27 2016

NOTE:  "FAIR" INDICATES FEW OR NO CLOUDS BELOW 12,000 FEET WITH NO
SIGNIFICANT WEATHER AND/OR OBSTRUCTIONS TO VISIBILITY.

KSZ001>006-013>018-027>032-041>047-272300-
NORTHWEST KANSAS

CITY           SKY/WX    TMP DP  RH WIND       PRES   REMARKS
GOODLAND       SUNNY     86  32  14 NW9       30.03F
HAYS           SUNNY     88  45  22 NW8       29.96F
HILL CITY      SUNNY     85  49  28 SW6       29.97F HAZE
RUSSELL        SUNNY     83  48  29 NW8       29.94F
$$

KSZ061>065-074>080-084>089-272300-
SOUTHWEST KANSAS

CITY           SKY/WX    TMP DP  RH WIND       PRES   REMARKS
DODGE CITY     SUNNY     88  36  15 SW9       30.00F
ELKHART          N/A     87  41  19 E3          N/A
GARDEN CITY    SUNNY     86  36  16 VRB5      30.02F
GREAT BEND     SUNNY     86  45  23 NW6       29.95F
LIBERAL        SUNNY     86  39  19 CALM      30.04F
$$

KSZ066>073-081>083-090>101-272300-
SOUTHEAST KANSAS

CITY           SKY/WX    TMP DP  RH WIND       PRES   REMARKS
CHANUTE        SUNNY     81  52  36 SW13      29.93F HAZE
COFFEYVILLE    SUNNY     83  49  30 W12       29.94F
HUTCHINSON     SUNNY     86  45  23 NW9       29.94F
MEDICINE LODGE   N/A     85  48  27 SE5       29.96F
PARSONS        SUNNY     82  50  32 SW9       29.95F
WICHITA INTL   MOSUNNY   81  52  36 SW3       29.95F
WICHITA JABRA  SUNNY     81  53  37 SW8       29.95F
WINFIELD       SUNNY     81  53  37 SW7       29.97F
$$

KSZ007>012-019>026-033>040-048>060-102>105-272300-
NORTHEAST KANSAS

CITY           SKY/WX    TMP DP  RH WIND       PRES   REMARKS
CONCORDIA      SUNNY     83  47  28 W8        29.91F HAZE
EMPORIA        SUNNY     81  49  32 W7        29.92F
LAWRENCE       SUNNY     80  51  36 W10       29.89F
MANHATTAN      SUNNY     82  53  36 SW8       29.90F
OLATHE IND     SUNNY     80  51  36 W9        29.91F
OLATHE EXE     SUNNY     78  48  34 W9        29.90F
SALINA         SUNNY     85  49  28 NW10      29.93F
TOPEKA BILLARD SUNNY     82  49  31 W8        29.89F
TOPEKA FORBES  SUNNY     82  51  34 W12       29.90F
$$




USA.gov is the U.S. government's official web portal to all federal, state and local government web resources and services.